EW7770 Weather Reports


Display with metric or nautical units.
time (UTC)temp
F
wind
direction
speed
MPH
gust
MPH
rain 1hr
in
rain 24hr
in
rain mn
in
humidity
%
barometer
mb
20260507121046 46 346 3.0 4.0 0.00 0.87 0.20 42 1005.7
20260507120045 46 313 3.0 4.0 0.00 0.87 0.20 39 1005.6
20260507115046 45 337 3.0 4.0 0.00 0.87 0.20 39 1006.1
20260507114044 45 337 2.0 3.0 0.00 0.87 0.20 37 1005.9
20260507113044 44 322 3.0 3.0 0.00 0.87 0.20 37 1006.2
20260507112047 44 337 3.0 4.0 0.00 0.87 0.20 37 1006.1
20260507111144 44 315 3.0 4.0 0.00 0.87 0.20 36 1005.6
20260507110146 44 315 2.0 2.0 0.00 0.87 0.20 35 1005.9
20260507105244 44 336 4.0 5.0 0.00 0.87 0.20 35 1005.9
20260507104343 44 315 3.0 3.0 0.00 0.87 0.20 33 1005.5
20260507102445 44 337 4.0 4.0 0.01 0.87 0.20 28 1005.3
20260507101446 44 315 1.0 3.0 0.01 0.87 0.20 28 1004.8
20260507100446 44 326 3.0 5.0 0.01 0.87 0.20 28 1005.0
20260507095446 44 337 2.0 3.0 0.01 0.87 0.20 28 1005.0
20260507094446 44 339 4.0 6.0 0.01 0.87 0.20 28 1004.8
20260507093446 44 337 3.0 4.0 0.00 0.86 0.19 28 1005.0
20260507092445 44 338 2.0 4.0 0.00 0.86 0.19 27 1005.4
20260507091544 44 340 4.0 5.0 0.00 0.86 0.19 27 1005.4
20260507090545 44 337 1.0 2.0 0.00 0.86 0.19 27 1005.3
20260507084546 44 327 2.0 4.0 0.00 0.87 0.19 27 1004.6
20260507082646 45 337 3.0 4.0 0.00 0.87 0.19 27 1004.6
20260507075746 45 342 2.0 4.0 0.00 0.87 0.19 26 1004.7
20260507074843 46 337 3.0 4.0 0.00 0.87 0.19 27 1004.4
20260507073845 46 330 3.0 4.0 0.00 0.87 0.19 27 1004.2
20260507073747 46 315 4.0 4.0 0.00 0.87 0.19 26 1004.2
20260507072846 46 327 4.0 4.0 0.00 0.87 0.19 27 1004.1
20260507071945 46 337 3.0 5.0 0.00 0.87 0.19 27 1004.5
20260507063946 47 337 3.0 4.0 0.18 0.87 0.19 27 1003.9
20260507062946 47 317 2.0 4.0 0.18 0.87 0.19 27 1003.8
20260507054047 48 312 3.0 4.0 0.01 0.69 0.01 27 1003.9
20260507052046 49 223 0.0 1.0 0.00 0.68 0.00 26 1003.8
20260507051045 49 229 1.0 2.0 0.00 0.68 0.00 26 1003.9
20260507050045 49 262 1.0 4.0 0.00 0.68 0.00 26 1003.9
20260507045045 49 275 3.0 8.0 0.00 0.68 0.00 27 1003.9
20260507044947 49 227 2.0 3.0 0.00 0.68 0.00 27 1004.0
20260507044044 49 217 4.0 9.0 0.00 0.68 0.00 27 1003.8
20260507043046 49 240 4.0 8.0 0.00 0.68 0.00 27 1003.7
20260507042145 49 242 4.0 6.0 0.00 0.68 0.00 27 1003.9
20260507041146 49 262 2.0 6.0 0.01 0.68 0.00 27 1004.2
20260507040230 49 230 5.0 11.0 0.01 0.68 0.00 27 1004.1
20260507035329 50 216 5.0 10.0 0.02 0.68 0.68 26 1004.3
20260507034330 50 226 5.0 12.0 0.02 0.68 0.68 27 1004.3
20260507032429 50 209 7.0 12.0 0.03 0.68 0.68 27 1004.2
20260507030430 50 221 3.0 4.0 0.04 0.67 0.67 27 1004.7
20260507025430 50 197 6.0 12.0 0.06 0.66 0.66 26 1004.6
20260507024429 50 207 3.0 7.0 0.07 0.66 0.66 27 1004.9
20260507023430 50 191 4.0 7.0 0.10 0.66 0.66 27 1005.2
20260507022528 50 165 2.0 5.0 0.13 0.65 0.65 27 1005.3
20260507021532 50 185 3.0 6.0 0.17 0.64 0.64 27 1005.4
20260507020530 50 185 3.0 5.0 0.17 0.62 0.62 27 1005.5
20260507015630 50 212 6.0 8.0 0.17 0.60 0.60 27 1005.7
20260507014630 50 196 5.0 8.0 0.19 0.59 0.59 26 1005.8
20260507013630 50 189 3.0 6.0 0.21 0.56 0.56 26 1006.0
20260507012728 51 194 5.0 6.0 0.21 0.52 0.51 26 1006.2
20260507011729 51 196 5.0 8.0 0.20 0.47 0.47 27 1006.3
20260507010733 51 199 3.0 5.0 0.21 0.45 0.45 26 1006.5
20260507004730 51 197 7.0 10.0 0.18 0.39 0.39 27 1006.8
20260507001731 51 201 5.0 9.0 0.13 0.27 0.26 28 1007.1
20260506234931 50 184 6.0 12.0 0.11 0.21 0.21 28 1007.2
20260506234030 50 189 3.0 4.0 0.07 0.17 0.17 28 1007.5
20260506232930 50 195 6.0 13.0 0.07 0.16 0.15 29 1007.5
20260506231931 50 192 6.0 8.0 0.06 0.14 0.14 28 1007.7
20260506230931 50 196 6.0 10.0 0.05 0.12 0.12 29 1007.6
20260506230030 50 185 5.0 9.0 0.05 0.11 0.11 30 1007.7
20260506224029 50 186 7.0 14.0 0.07 0.10 0.10 30 1007.9
20260506223031 51 189 5.0 7.0 0.07 0.09 0.09 30 1008.0
20260506221131 51 192 4.0 8.0 0.05 0.07 0.07 31 1008.4
20260506220132 51 197 5.0 9.0 0.04 0.05 0.05 31 1008.5
20260506215230 51 195 4.0 7.0 0.03 0.04 0.04 33 1008.9
20260506214129 51 197 4.0 8.0 0.02 0.03 0.03 33 1008.5
20260506213229 51 191 5.0 9.0 0.01 0.02 0.02 34 1008.7
20260506212231 52 175 4.0 5.0 0.01 0.02 0.02 35 1008.6
20260506211249 52 193 5.0 11.0 0.01 0.02 0.02 36 1009.0
20260506210331 52 209 5.0 9.0 0.00 0.01 0.01 37 1008.8
20260506205429 53 197 4.0 7.0 0.00 0.01 0.01 38 1009.2
20260506203530 53 208 4.0 11.0 0.00 0.01 0.01 41 1009.0
20260506202532 53 210 4.0 7.0 0.00 0.01 0.01 42 1009.1
20260506201629 53 200 4.0 7.0 0.00 0.01 0.01 42 1008.7
20260506194730 54 199 5.0 8.0 0.00 0.01 0.01 43 1008.8
20260506193730 54 192 4.0 11.0 0.00 0.01 0.01 43 1008.9
20260506192729 54 195 4.0 6.0 0.00 0.01 0.01 44 1009.0
20260506191731 54 201 4.0 6.0 0.00 0.01 0.01 44 1009.1
20260506190830 54 195 5.0 12.0 0.00 0.01 0.01 43 1009.4
20260506185830 54 203 4.0 8.0 0.00 0.01 0.01 43 1009.3
20260506184929 54 196 5.0 12.0 0.00 0.01 0.01 43 1009.1
20260506183931 54 183 3.0 7.0 0.00 0.01 0.01 44 1009.5
20260506183029 55 179 5.0 9.0 0.00 0.01 0.01 44 1009.4
20260506182030 55 206 3.0 7.0 0.00 0.01 0.01 43 1009.6
20260506181130 55 189 6.0 9.0 0.00 0.01 0.01 43 1009.8
20260506175129 55 210 5.0 14.0 0.00 0.01 0.01 43 1009.9
20260506174133 55 208 7.0 13.0 0.00 0.01 0.01 44 1010.0
20260506171130 56 213 5.0 13.0 0.00 0.01 0.01 45 1010.2
20260506170129 56 216 6.0 11.0 0.00 0.01 0.01 45 1010.3
20260506165132 56 206 4.0 6.0 0.00 0.01 0.01 44 1010.3
20260506164230 56 210 8.0 17.0 0.00 0.01 0.01 42 1010.5
20260506163230 55 199 3.0 7.0 0.00 0.01 0.01 43 1010.6
20260506162329 55 198 5.0 10.0 0.00 0.01 0.01 41 1010.8
20260506161330 55 204 4.0 7.0 0.00 0.01 0.01 42 1010.9
20260506160429 54 213 5.0 9.0 0.00 0.01 0.01 42 1010.9
20260506155431 54 208 5.0 11.0 0.00 0.01 0.01 41 1011.1
20260506154429 54 211 4.0 9.0 0.00 0.01 0.01 40 1010.6
20260506153429 54 200 5.0 9.0 0.00 0.01 0.01 40 1010.6
20260506150532 53 196 5.0 9.0 0.00 0.01 0.01 38 1010.8
20260506145531 53 194 5.0 12.0 0.00 0.01 0.01 38 1011.1
20260506144529 53 226 2.0 5.0 0.00 0.01 0.01 38 1011.4
20260506140531 54 168 3.0 5.0 0.00 0.01 0.01 42 1011.3
20260506135529 54 206 3.0 7.0 0.00 0.01 0.01 42 1011.2
20260506132629 56 222 6.0 8.0 0.00 0.01 0.01 45 1011.1
20260506132529 56 224 4.0 6.0 0.00 0.01 0.01 46 1011.0
20260506130531 56 196 2.0 4.0 0.00 0.01 0.01 48 1010.9
20260506125530 57 191 4.0 7.0 0.00 0.01 0.01 48 1010.8